Вернуться в каталог

STARLINK-31100

АктивенСвязьVLEO
NORAD 58714·PAYLOAD·🇺🇸 United States

Запущен Jan 3, 2024 с Vandenberg Space Force Base

Loading…

Ближайшие Пролёты (ближайшие 24 часа)

TLE

СвежийSource: CelesTrak SupGP

Эпоха: Sep 15, 2026, 02:03 UTC

1 58714C 24002K   26258.08590278 -.00021647  00000+0 -63968-3 0  2589
2 58714  53.1590  68.7497 0001132  81.8876 269.1499 15.34395310    11

Отслеживайте STARLINK-31100 в реальном времени с AllMySat

Download on the App Store